This is the latest recevied weather packets stored in our database for station/object WW3TRG. If no packets are shown the sender has not sent any weather packets the latest 10 day(s).
| Time | Temp. | Humidity | Pressure | Rain* | Wind** | Luminosity | Snow |
|---|---|---|---|---|---|---|---|
| 1788555105 | 28.33° C | 63% | 1010.6 hPa | 0 mm | - | 268 W/m² | - |
| 1788554800 | 28.33° C | 70% | 1010.7 hPa | 0 mm | - | 209 W/m² | - |
| 1788554496 | 27.78° C | 70% | 1010.6 hPa | 0 mm | - | 179 W/m² | - |
| 1788554192 | 27.78° C | 66% | 1010.8 hPa | 0 mm | - | 133 W/m² | - |
| 1788553888 | 27.78° C | 67% | 1010.8 hPa | 0 mm | - | 111 W/m² | - |
| 1788553584 | 28.33° C | 63% | 1010.9 hPa | 0 mm | - | 79 W/m² | - |
| 1788553280 | 28.89° C | 62% | 1010.7 hPa | 0 mm | - | 256 W/m² | - |
| 1788552980 | 28.89° C | 59% | 1011 hPa | 0 mm | - | 60 W/m² | - |
| 1788552675 | 28.89° C | 64% | 1010.9 hPa | 0 mm | - | 316 W/m² | - |
| 1788552369 | 28.89° C | 67% | 1011 hPa | 0 mm | - | 76 W/m² | - |
| 1788552064 | 28.33° C | 63% | 1011.2 hPa | 0 mm | - | 250 W/m² | - |
| 1788551763 | 28.33° C | 62% | 1011.2 hPa | 0 mm | - | 235 W/m² | - |
| 1788551461 | 28.33° C | 67% | 1011.3 hPa | 0 mm | - | 69 W/m² | - |
| 1788551156 | 28.33° C | 64% | 1011.4 hPa | 0 mm | - | 82 W/m² | - |
| 1788550851 | 28.33° C | 67% | 1011.3 hPa | 0 mm | - | 130 W/m² | - |
| 1788550546 | 27.78° C | 66% | 1011.5 hPa | 0 mm | - | 139 W/m² | - |
| 1788550243 | 27.22° C | 70% | 1011.6 hPa | 0 mm | - | 111 W/m² | - |
| 1788549942 | 27.22° C | 71% | 1011.6 hPa | 0 mm | - | 135 W/m² | - |
| 1788549638 | 27.22° C | 71% | 1011.9 hPa | 0 mm | - | 78 W/m² | - |
| 1788549335 | 27.22° C | 73% | 1011.8 hPa | 0 mm | - | 135 W/m² | - |
| 1788549031 | 27.78° C | 72% | 1011.6 hPa | 0 mm | - | 149 W/m² | - |
| 1788548726 | 27.22° C | 69% | 1012 hPa | 0 mm | - | 78 W/m² | - |
| 1788548422 | 27.78° C | 68% | 1011.8 hPa | 0 mm | - | 131 W/m² | - |
| 1788548118 | 27.22° C | 73% | 1012.1 hPa | 0 mm | - | 424 W/m² | - |
| 1788547812 | 26.67° C | 74% | 1012 hPa | 0 mm | - | 135 W/m² | - |
* Rain latest hour (hover to see other rain measurements)
** Current wind speed in m/s (hover to see current wind gust speed)